SCP
0 -0 0 0 0 -0 0 0 0 0 0 0 0 0 0 0 -0 -0 0 0 0 0 0 0 0 0 0 0 0 0 0 0 1 1 0 0 1 1 1 2 2 2 2 2
0 0 0 0 0 0 0 0 0 0 0 0 0 0 0 0 -0 -0 0 0 0 0 0 0 -0 -0 0 0 0 0 0 0 1 1 0 1 2 2 3 3 2 2 2 2
0 0 0 0 -0 -0 0 0 0 0 0 0 0 0 0 0 -0 -0 0 0 0 0 0 -0 -0 0 0 0 0 -0 -0 0 1 1 1 2 2 3 3 2 2 2 2 1
0 0 0 0 0 0 0 0 0 0 0 0 0 0 0 0 -0 0 0 0 0 0 -0 -0 -0 0 0 -0 0 0 0 1 1 1 2 3 3 2 2 2 2 2 1 1
0 0 0 0 0 0 0 0 0 0 0 0 0 0 -0 -0 0 -0 0 0 -0 -0 -0 -0 -0 0 0 -0 0 0 0 1 1 1 2 3 3 2 2 1 1 1 0 0
0 0 0 0 0 0 0 0 0 0 0 0 0 -0 -0 0 -0 -0 -0 0 0 0 -0 -0 0 -0 0 0 0 0 1 1 1 1 2 3 3 1 1 0 0 0 0 0
-0 0 0 0 0 0 0 0 0 0 0 -0 -0 0 -0 -0 -0 -0 -0 -0 0 -0 0 -0 -0 0 0 0 0 0 1 1 1 1 2 1 1 0 0 0 0 0 0 0
0 0 0 0 0 0 0 -0 -0 -0 -0 0 0 -0 -0 -0 -0 -0 -0 0 -0 -0 0 -0 0 0 0 0 0 0 1 1 1 1 1 0 0 0 0 0 0 0 0 0
0 0 0 0 0 -0 -0 -0 0 0 0 -0 -0 -0 -0 -0 -0 -0 -0 -0 0 0 0 -0 0 0 0 0 0 0 0 0 0 0 0 0 0 0 0 0 0 0 0 0
0 0 0 0 -0 0 -0 -0 -0 0 0 -0 -0 -0 -0 -0 -0 -0 -0 -0 -0 0 -0 0 0 0 0 0 0 0 0 0 0 0 0 0 0 0 0 0 0 0 0 0
0 0 -0 0 0 -0 -0 0 0 -0 -0 -0 -0 -0 -0 -0 -0 -0 0 -0 0 -0 0 0 0 0 0 0 0 0 0 0 0 0 0 0 0 0 0 0 0 0 0 0
0 -0 -0 -0 -0 -0 -0 -0 -0 -0 -0 -0 -0 0 -0 -0 -0 0 0 0 -0 0 0 0 0 0 0 0 0 0 0 0 0 0 0 0 0 0 0 0 0 0 0 0
0 0 0 0 -0 -0 -0 -0 -0 -0 -0 -0 -0 -0 -0 -0 0 0 0 0 0 0 0 0 0 0 0 0 0 0 0 0 0 0 0 0 0 0 0 0 -0 0 0 0
0 -0 -0 0 -0 -0 -0 -0 -0 -0 -0 -0 -0 -0 -0 0 0 0 0 0 0 0 0 0 0 -0 0 0 0 0 0 0 0 0 0 0 0 0 0 0 0 0 0 0
0 -0 -0 -0 -0 -0 -0 0 0 0 -0 -0 -0 0 0 0 0 0 0 0 0 0 0 0 0 0 0 0 0 0 0 0 0 0 0 0 0 0 0 0 0 0 0 0
0 -0 -0 -0 -0 -0 0 0 0 -0 -0 -0 -0 0 0 0 0 0 0 0 0 0 0 0 0 0 0 0 0 0 0 0 0 0 0 0 0 0 0 0 0 0 0 0
-0 -0 -0 -0 -0 -0 0 0 -0 -0 -0 -0 0 0 0 0 0 0 0 0 0 0 0 0 0 0 0 0 0 0 0 0 0 0 0 0 0 0 0 0 0 0 0 0
0 -0 -0 -0 -0 -0 0 0 -0 -0 -0 -0 0 0 0 0 0 0 0 0 0 0 0 0 0 0 0 0 0 0 0 0 0 0 0 0 0 0 0 0 0 0 0 0
-0 -0 -0 -0 -0 -0 -0 -0 -0 -0 -0 -0 0 0 0 0 0 0 0 0 0 0 0 0 0 0 0 0 0 0 0 0 0 0 0 0 0 0 0 0 0 0 0 0
0 -0 -0 0 -0 -0 -0 -0 -0 -0 0 0 0 0 0 0 0 0 0 0 0 0 0 0 0 0 0 0 0 0 0 0 0 0 0 0 0 0 0 0 0 0 0 0
-0 0 0 0 0 -0 -0 -0 -0 -0 0 0 -0 -0 0 0 0 0 0 0 0 0 0 0 0 0 0 0 0 0 0 0 0 0 0 0 0 0 0 0 0 0 0 0
-0 0 0 0 0 0 -0 -0 -0 -0 0 -0 -0 -0 0 0 0 0 0 0 0 0 0 0 0 0 0 0 0 0 0 0 0 0 0 0 0 0 0 0 0 0 0 0
-0 0 0 0 0 0 0 -0 -0 0 0 0 0 0 0 0 0 0 0 0 0 0 0 0 0 0 0 0 0 0 0 0 0 0 0 0 0 0 0 0 0 0 0 0
-0 -0 0 0 0 0 -0 0 -0 -0 0 0 0 0 0 0 0 0 0 0 0 0 0 0 0 0 0 0 0 0 0 0 0 0 0 0 0 0 0 0 0 0 0 0
-0 -0 -0 -0 0 0 0 -0 -0 0 0 0 0 0 0 0 0 0 0 0 0 0 0 0 0 0 0 0 0 0 0 0 0 0 0 0 0 0 0 0 0 0 0 0
-0 -0 0 0 0 0 0 -0 -0 -0 -0 0 0 0 0 0 0 0 0 0 0 0 0 0 0 0 0 0 0 0 0 0 0 0 0 0 0 0 0 0 0 0 0 0
-0 -0 -0 0 -0 -0 0 -0 0 0 -0 -0 0 0 0 0 0 0 0 0 0 0 0 0 0 0 0 0 0 0 0 0 0 0 0 0 0 0 0 0 0 0 0 0
Wind_Speed_500mb
36 40 38 40 44 46 43 45 29 55 52 54 40 41 45 46 52 54 55 53 49 45 38 40 41 51 60 56 51 47 52 58 63 62 63 69 61 57 53 50 49 52 52 50
29 34 38 44 46 49 49 49 48 57 62 47 53 41 49 54 48 57 60 60 55 44 42 47 51 61 64 59 47 46 51 54 58 62 63 62 57 52 53 54 52 51 51 54
26 20 17 28 41 36 23 22 27 36 41 34 36 38 45 65 62 66 67 62 59 48 45 57 67 77 67 67 57 56 56 49 50 54 66 62 59 59 55 50 49 48 52 50
18 22 18 6 17 22 29 35 34 36 38 33 41 63 68 70 66 64 51 58 49 57 75 76 60 72 73 70 55 54 45 49 55 57 69 68 63 56 54 56 53 56 56 56
7 8 28 21 9 10 13 32 34 27 24 42 69 76 57 49 38 55 65 70 68 69 63 63 59 61 74 62 49 51 45 52 60 72 81 71 66 64 59 62 61 63 59 54
6 7 10 4 4 17 23 29 17 20 42 51 60 35 29 55 67 71 67 65 69 70 68 61 50 54 71 70 56 48 38 55 63 76 74 74 74 73 72 70 68 60 58 53
17 12 15 4 10 33 11 10 40 62 54 62 38 42 81 83 79 70 72 71 68 65 70 57 49 42 52 66 55 44 37 50 67 65 69 70 76 73 77 74 68 64 57 48
7 10 11 10 16 4 28 61 64 60 62 68 61 79 81 83 78 75 72 70 74 70 62 48 45 40 60 53 40 34 48 51 60 66 70 75 81 83 74 71 64 59 54 46
9 8 13 38 28 50 56 65 71 63 66 61 75 74 76 78 74 76 75 74 71 69 63 61 43 49 49 40 37 38 49 55 63 69 74 89 82 74 72 65 61 54 43 37
7 5 10 45 48 46 56 58 59 60 69 69 69 68 71 73 78 80 85 85 85 69 46 52 62 60 37 45 50 47 63 74 78 95 90 74 67 70 66 60 53 42 36 36
13 23 42 30 41 54 53 58 66 63 63 63 62 67 66 74 78 85 89 89 76 75 76 78 60 48 52 76 67 61 74 80 88 86 82 80 76 64 55 44 34 32 32 34
7 47 37 46 50 60 63 57 67 63 66 62 56 61 68 76 81 85 86 91 91 28 37 41 48 60 68 69 88 72 86 86 89 87 79 75 71 62 48 40 35 31 27 28
25 42 49 49 51 64 56 68 59 61 57 60 60 60 63 65 71 74 76 66 47 60 68 67 76 74 64 74 78 76 84 79 80 79 77 72 61 57 61 52 42 34 30 31
41 45 55 50 64 58 58 58 53 54 52 51 56 61 62 56 54 50 49 38 45 55 68 65 68 67 70 77 78 84 74 77 77 76 69 62 60 62 57 53 46 41 38 36
49 53 51 60 54 58 63 60 54 52 60 61 61 60 61 62 52 43 37 39 49 59 49 55 67 61 61 65 76 78 76 73 72 66 58 57 63 59 56 51 47 49 46 41
53 52 61 60 58 57 60 56 53 53 58 61 60 58 53 47 38 33 44 40 55 60 59 63 59 59 63 68 67 65 66 69 68 60 61 60 61 58 58 52 49 50 51 51
43 51 62 61 62 58 58 55 50 56 58 55 59 51 47 38 35 38 43 44 50 54 55 60 60 58 61 59 65 67 63 60 57 60 57 57 55 57 56 55 48 59 59 53
32 43 49 48 51 58 58 61 60 60 59 55 51 46 42 34 38 36 38 38 48 53 59 59 57 52 57 56 57 60 60 54 53 54 53 54 53 56 62 56 64 73 63 46
37 38 43 44 46 52 57 56 55 51 51 53 52 51 42 34 28 33 40 40 50 56 52 51 47 47 55 60 59 56 50 49 52 55 55 54 57 66 60 65 72 73 62 53
37 33 43 43 44 48 61 66 66 63 57 57 56 55 52 47 38 46 42 43 46 44 44 46 46 48 47 43 49 49 53 56 56 56 59 61 65 65 63 71 78 71 60 50
42 36 38 40 44 48 52 67 73 75 67 63 62 60 53 45 54 45 41 42 38 36 40 40 41 44 43 44 44 45 51 58 60 62 61 63 68 66 65 74 72 66 56 48
46 35 36 42 44 48 62 63 69 69 73 68 58 55 56 52 50 53 49 41 34 27 28 33 35 39 46 44 50 54 59 59 61 64 65 67 66 67 65 67 67 63 57 48
41 38 31 38 48 53 55 65 64 68 67 71 63 57 53 56 52 48 54 43 34 25 27 27 28 32 49 47 52 57 58 55 55 58 62 65 68 66 65 63 62 59 53 45
39 43 39 32 38 55 62 59 59 62 66 69 67 58 53 48 45 40 36 32 28 27 31 32 26 28 37 49 54 56 55 52 55 57 59 64 66 65 62 61 59 54 49 43
39 38 37 39 40 42 47 51 49 56 58 64 66 67 60 49 45 38 31 29 26 26 32 31 26 27 32 40 50 51 54 53 57 59 63 67 69 67 64 59 56 56 51 49
45 43 39 39 38 34 41 45 45 52 53 48 59 62 64 60 45 37 33 33 31 26 32 34 32 34 44 43 44 49 51 53 55 59 61 62 65 64 59 55 55 54 54 56
38 39 40 42 41 33 32 36 45 50 51 54 50 53 55 58 58 51 42 33 34 35 35 38 36 31 39 39 40 43 46 49 50 52 54 56 58 58 59 62 58 59 61 63
Wind_Direction_500mb
260 270 275 272 271 271 261 248 250 273 272 278 286 288 301 301 303 301 298 295 297 297 312 304 303 310 315 304 283 281 279 260 237 228 234 228 222 216 214 215 208 200 202 198
265 262 259 267 268 262 259 261 260 263 270 276 279 291 298 306 308 302 298 297 291 283 302 300 315 314 313 307 296 289 284 259 241 227 225 210 203 199 192 188 192 199 198 187
275 293 284 270 258 263 250 245 251 265 275 291 298 303 302 305 302 293 298 302 288 269 289 308 312 313 305 306 296 294 280 248 224 210 203 189 184 180 185 190 183 182 187 186
276 296 264 301 316 285 278 278 278 266 284 303 302 302 304 300 291 289 288 299 299 286 291 302 293 299 311 303 290 289 263 227 208 189 183 175 175 180 177 172 177 180 174 170
266 241 295 291 26 10 336 287 287 286 301 309 317 314 304 293 300 301 294 293 291 290 294 293 281 289 309 296 278 284 244 215 195 186 175 172 173 170 173 172 169 165 167 166
216 249 274 355 32 352 333 284 193 310 313 313 314 294 298 308 302 299 295 290 287 289 287 289 280 283 301 302 282 267 235 209 186 182 176 173 171 169 165 163 158 159 159 161
267 270 264 7 344 327 263 338 311 306 292 304 297 289 296 300 297 296 296 295 292 287 286 288 280 263 276 289 256 239 217 186 181 177 176 175 168 164 160 158 157 157 161 163
240 251 268 29 342 253 298 298 300 300 298 298 292 298 296 298 295 297 297 297 298 292 290 278 267 273 277 269 237 216 190 173 178 182 179 169 163 152 158 156 157 158 160 159
223 247 266 328 296 283 289 303 305 301 300 296 299 297 296 299 300 300 297 296 297 292 285 278 272 282 281 232 208 180 170 173 176 173 166 152 145 151 152 156 157 156 159 161
302 288 302 289 296 297 306 310 311 304 304 301 296 297 301 304 305 306 307 302 301 294 283 261 263 271 255 212 184 166 153 154 154 147 143 144 149 152 154 158 158 159 161 163
257 283 301 281 293 317 314 313 319 306 307 304 305 304 306 306 307 308 308 313 300 279 264 257 255 230 203 177 169 153 148 140 142 145 145 150 151 153 152 156 164 164 164 169
288 316 316 304 316 325 323 319 318 319 315 314 313 312 315 313 316 316 310 312 309 302 243 221 184 173 169 167 170 160 149 149 149 145 147 149 151 147 146 138 132 135 147 161
310 322 318 316 322 327 322 324 321 321 321 323 327 321 323 322 328 324 319 346 40 100 113 134 145 151 156 155 159 156 149 151 147 148 150 151 146 144 136 131 131 135 133 135
332 330 337 333 325 325 325 335 333 332 326 321 334 335 336 334 338 331 346 21 85 115 113 116 128 135 139 142 146 150 150 151 150 150 150 148 148 146 143 139 138 131 129 133
335 335 331 331 332 330 332 339 337 331 337 341 345 348 340 338 351 356 33 79 101 108 105 118 129 135 141 143 147 149 148 150 150 149 150 151 151 151 151 147 145 137 135 134
324 333 338 340 336 337 341 341 343 340 345 347 352 349 353 345 11 28 69 93 106 110 112 119 127 136 141 143 142 142 146 151 153 153 153 154 157 157 152 151 145 140 137 132
334 337 342 342 341 345 349 351 353 354 353 358 355 1 3 1 34 52 77 91 100 109 114 116 122 132 139 144 147 150 150 155 157 156 157 159 159 155 158 150 141 138 135 136
340 345 348 344 342 348 348 359 4 5 360 359 10 14 23 28 29 48 78 90 103 109 119 121 129 139 145 149 150 152 152 156 158 160 162 162 158 160 158 152 141 139 138 130
348 347 355 358 355 356 2 2 9 16 9 12 18 25 28 35 46 64 87 104 104 110 116 126 131 137 140 144 147 151 157 160 159 158 160 159 159 161 156 146 146 145 142 134
351 352 1 5 6 7 14 21 20 22 22 22 30 37 38 39 49 71 78 86 90 102 120 129 134 136 142 139 146 144 149 153 151 149 151 156 159 156 154 155 153 151 149 145
350 354 359 7 10 13 13 20 24 26 27 27 29 35 41 40 54 64 89 88 89 105 126 138 144 144 144 149 142 138 145 148 149 149 152 154 156 155 159 160 156 155 154 151
1 359 3 8 15 14 18 21 22 23 30 31 32 31 37 40 51 59 67 72 82 99 121 136 147 148 152 156 154 150 150 151 153 157 158 159 161 159 161 162 159 159 159 159
13 7 9 10 14 16 17 23 24 25 33 34 31 33 34 34 37 46 53 62 79 92 116 128 135 149 155 157 159 157 158 158 157 159 161 162 160 160 162 163 163 163 165 162
19 27 21 25 22 18 19 20 28 29 32 36 35 35 35 37 42 44 48 56 78 95 107 114 129 148 161 162 163 163 162 159 156 154 154 159 159 160 161 163 166 167 164 161
21 22 25 24 25 26 24 20 24 33 31 33 37 38 36 38 42 37 48 60 73 100 103 106 125 145 156 160 162 162 161 161 158 156 158 160 160 161 162 165 166 162 163 161
25 23 22 21 19 25 26 23 25 29 35 35 36 38 39 39 43 53 63 72 83 98 109 110 116 137 140 146 154 158 162 161 162 163 164 163 163 162 162 162 162 166 165 157
22 19 15 18 28 33 34 25 20 25 30 32 35 35 36 40 41 46 51 67 79 89 99 110 116 121 128 136 146 151 155 159 164 166 167 166 165 165 165 161 163 159 157 153
Wind_Speed_850mb
36 40 38 40 44 46 43 45 29 55 52 54 40 41 45 46 52 54 55 53 49 45 38 40 41 51 60 56 51 47 52 58 63 62 63 69 61 57 53 50 49 52 52 50
29 34 38 44 46 49 49 49 48 57 62 47 53 41 49 54 48 57 60 60 55 44 42 47 51 61 64 59 47 46 51 54 58 62 63 62 57 52 53 54 52 51 51 54
26 20 17 28 41 36 23 22 27 36 41 34 36 38 45 65 62 66 67 62 59 48 45 57 67 77 67 67 57 56 56 49 50 54 66 62 59 59 55 50 49 48 52 50
18 22 18 6 17 22 29 35 34 36 38 33 41 63 68 70 66 64 51 58 49 57 75 76 60 72 73 70 55 54 45 49 55 57 69 68 63 56 54 56 53 56 56 56
7 8 28 21 9 10 13 32 34 27 24 42 69 76 57 49 38 55 65 70 68 69 63 63 59 61 74 62 49 51 45 52 60 72 81 71 66 64 59 62 61 63 59 54
6 7 10 4 4 17 23 29 17 20 42 51 60 35 29 55 67 71 67 65 69 70 68 61 50 54 71 70 56 48 38 55 63 76 74 74 74 73 72 70 68 60 58 53
17 12 15 4 10 33 11 10 40 62 54 62 38 42 81 83 79 70 72 71 68 65 70 57 49 42 52 66 55 44 37 50 67 65 69 70 76 73 77 74 68 64 57 48
7 10 11 10 16 4 28 61 64 60 62 68 61 79 81 83 78 75 72 70 74 70 62 48 45 40 60 53 40 34 48 51 60 66 70 75 81 83 74 71 64 59 54 46
9 8 13 38 28 50 56 65 71 63 66 61 75 74 76 78 74 76 75 74 71 69 63 61 43 49 49 40 37 38 49 55 63 69 74 89 82 74 72 65 61 54 43 37
7 5 10 45 48 46 56 58 59 60 69 69 69 68 71 73 78 80 85 85 85 69 46 52 62 60 37 45 50 47 63 74 78 95 90 74 67 70 66 60 53 42 36 36
13 23 42 30 41 54 53 58 66 63 63 63 62 67 66 74 78 85 89 89 76 75 76 78 60 48 52 76 67 61 74 80 88 86 82 80 76 64 55 44 34 32 32 34
7 47 37 46 50 60 63 57 67 63 66 62 56 61 68 76 81 85 86 91 91 28 37 41 48 60 68 69 88 72 86 86 89 87 79 75 71 62 48 40 35 31 27 28
25 42 49 49 51 64 56 68 59 61 57 60 60 60 63 65 71 74 76 66 47 60 68 67 76 74 64 74 78 76 84 79 80 79 77 72 61 57 61 52 42 34 30 31
41 45 55 50 64 58 58 58 53 54 52 51 56 61 62 56 54 50 49 38 45 55 68 65 68 67 70 77 78 84 74 77 77 76 69 62 60 62 57 53 46 41 38 36
49 53 51 60 54 58 63 60 54 52 60 61 61 60 61 62 52 43 37 39 49 59 49 55 67 61 61 65 76 78 76 73 72 66 58 57 63 59 56 51 47 49 46 41
53 52 61 60 58 57 60 56 53 53 58 61 60 58 53 47 38 33 44 40 55 60 59 63 59 59 63 68 67 65 66 69 68 60 61 60 61 58 58 52 49 50 51 51
43 51 62 61 62 58 58 55 50 56 58 55 59 51 47 38 35 38 43 44 50 54 55 60 60 58 61 59 65 67 63 60 57 60 57 57 55 57 56 55 48 59 59 53
32 43 49 48 51 58 58 61 60 60 59 55 51 46 42 34 38 36 38 38 48 53 59 59 57 52 57 56 57 60 60 54 53 54 53 54 53 56 62 56 64 73 63 46
37 38 43 44 46 52 57 56 55 51 51 53 52 51 42 34 28 33 40 40 50 56 52 51 47 47 55 60 59 56 50 49 52 55 55 54 57 66 60 65 72 73 62 53
37 33 43 43 44 48 61 66 66 63 57 57 56 55 52 47 38 46 42 43 46 44 44 46 46 48 47 43 49 49 53 56 56 56 59 61 65 65 63 71 78 71 60 50
42 36 38 40 44 48 52 67 73 75 67 63 62 60 53 45 54 45 41 42 38 36 40 40 41 44 43 44 44 45 51 58 60 62 61 63 68 66 65 74 72 66 56 48
46 35 36 42 44 48 62 63 69 69 73 68 58 55 56 52 50 53 49 41 34 27 28 33 35 39 46 44 50 54 59 59 61 64 65 67 66 67 65 67 67 63 57 48
41 38 31 38 48 53 55 65 64 68 67 71 63 57 53 56 52 48 54 43 34 25 27 27 28 32 49 47 52 57 58 55 55 58 62 65 68 66 65 63 62 59 53 45
39 43 39 32 38 55 62 59 59 62 66 69 67 58 53 48 45 40 36 32 28 27 31 32 26 28 37 49 54 56 55 52 55 57 59 64 66 65 62 61 59 54 49 43
39 38 37 39 40 42 47 51 49 56 58 64 66 67 60 49 45 38 31 29 26 26 32 31 26 27 32 40 50 51 54 53 57 59 63 67 69 67 64 59 56 56 51 49
45 43 39 39 38 34 41 45 45 52 53 48 59 62 64 60 45 37 33 33 31 26 32 34 32 34 44 43 44 49 51 53 55 59 61 62 65 64 59 55 55 54 54 56
38 39 40 42 41 33 32 36 45 50 51 54 50 53 55 58 58 51 42 33 34 35 35 38 36 31 39 39 40 43 46 49 50 52 54 56 58 58 59 62 58 59 61 63
Wind_Direction_850mb
260 270 275 272 271 271 261 248 250 273 272 278 286 288 301 301 303 301 298 295 297 297 312 304 303 310 315 304 283 281 279 260 237 228 234 228 222 216 214 215 208 200 202 198
265 262 259 267 268 262 259 261 260 263 270 276 279 291 298 306 308 302 298 297 291 283 302 300 315 314 313 307 296 289 284 259 241 227 225 210 203 199 192 188 192 199 198 187
275 293 284 270 258 263 250 245 251 265 275 291 298 303 302 305 302 293 298 302 288 269 289 308 312 313 305 306 296 294 280 248 224 210 203 189 184 180 185 190 183 182 187 186
276 296 264 301 316 285 278 278 278 266 284 303 302 302 304 300 291 289 288 299 299 286 291 302 293 299 311 303 290 289 263 227 208 189 183 175 175 180 177 172 177 180 174 170
266 241 295 291 26 10 336 287 287 286 301 309 317 314 304 293 300 301 294 293 291 290 294 293 281 289 309 296 278 284 244 215 195 186 175 172 173 170 173 172 169 165 167 166
216 249 274 355 32 352 333 284 193 310 313 313 314 294 298 308 302 299 295 290 287 289 287 289 280 283 301 302 282 267 235 209 186 182 176 173 171 169 165 163 158 159 159 161
267 270 264 7 344 327 263 338 311 306 292 304 297 289 296 300 297 296 296 295 292 287 286 288 280 263 276 289 256 239 217 186 181 177 176 175 168 164 160 158 157 157 161 163
240 251 268 29 342 253 298 298 300 300 298 298 292 298 296 298 295 297 297 297 298 292 290 278 267 273 277 269 237 216 190 173 178 182 179 169 163 152 158 156 157 158 160 159
223 247 266 328 296 283 289 303 305 301 300 296 299 297 296 299 300 300 297 296 297 292 285 278 272 282 281 232 208 180 170 173 176 173 166 152 145 151 152 156 157 156 159 161
302 288 302 289 296 297 306 310 311 304 304 301 296 297 301 304 305 306 307 302 301 294 283 261 263 271 255 212 184 166 153 154 154 147 143 144 149 152 154 158 158 159 161 163
257 283 301 281 293 317 314 313 319 306 307 304 305 304 306 306 307 308 308 313 300 279 264 257 255 230 203 177 169 153 148 140 142 145 145 150 151 153 152 156 164 164 164 169
288 316 316 304 316 325 323 319 318 319 315 314 313 312 315 313 316 316 310 312 309 302 243 221 184 173 169 167 170 160 149 149 149 145 147 149 151 147 146 138 132 135 147 161
310 322 318 316 322 327 322 324 321 321 321 323 327 321 323 322 328 324 319 346 40 100 113 134 145 151 156 155 159 156 149 151 147 148 150 151 146 144 136 131 131 135 133 135
332 330 337 333 325 325 325 335 333 332 326 321 334 335 336 334 338 331 346 21 85 115 113 116 128 135 139 142 146 150 150 151 150 150 150 148 148 146 143 139 138 131 129 133
335 335 331 331 332 330 332 339 337 331 337 341 345 348 340 338 351 356 33 79 101 108 105 118 129 135 141 143 147 149 148 150 150 149 150 151 151 151 151 147 145 137 135 134
324 333 338 340 336 337 341 341 343 340 345 347 352 349 353 345 11 28 69 93 106 110 112 119 127 136 141 143 142 142 146 151 153 153 153 154 157 157 152 151 145 140 137 132
334 337 342 342 341 345 349 351 353 354 353 358 355 1 3 1 34 52 77 91 100 109 114 116 122 132 139 144 147 150 150 155 157 156 157 159 159 155 158 150 141 138 135 136
340 345 348 344 342 348 348 359 4 5 360 359 10 14 23 28 29 48 78 90 103 109 119 121 129 139 145 149 150 152 152 156 158 160 162 162 158 160 158 152 141 139 138 130
348 347 355 358 355 356 2 2 9 16 9 12 18 25 28 35 46 64 87 104 104 110 116 126 131 137 140 144 147 151 157 160 159 158 160 159 159 161 156 146 146 145 142 134
351 352 1 5 6 7 14 21 20 22 22 22 30 37 38 39 49 71 78 86 90 102 120 129 134 136 142 139 146 144 149 153 151 149 151 156 159 156 154 155 153 151 149 145
350 354 359 7 10 13 13 20 24 26 27 27 29 35 41 40 54 64 89 88 89 105 126 138 144 144 144 149 142 138 145 148 149 149 152 154 156 155 159 160 156 155 154 151
1 359 3 8 15 14 18 21 22 23 30 31 32 31 37 40 51 59 67 72 82 99 121 136 147 148 152 156 154 150 150 151 153 157 158 159 161 159 161 162 159 159 159 159
13 7 9 10 14 16 17 23 24 25 33 34 31 33 34 34 37 46 53 62 79 92 116 128 135 149 155 157 159 157 158 158 157 159 161 162 160 160 162 163 163 163 165 162
19 27 21 25 22 18 19 20 28 29 32 36 35 35 35 37 42 44 48 56 78 95 107 114 129 148 161 162 163 163 162 159 156 154 154 159 159 160 161 163 166 167 164 161
21 22 25 24 25 26 24 20 24 33 31 33 37 38 36 38 42 37 48 60 73 100 103 106 125 145 156 160 162 162 161 161 158 156 158 160 160 161 162 165 166 162 163 161
25 23 22 21 19 25 26 23 25 29 35 35 36 38 39 39 43 53 63 72 83 98 109 110 116 137 140 146 154 158 162 161 162 163 164 163 163 162 162 162 162 166 165 157
22 19 15 18 28 33 34 25 20 25 30 32 35 35 36 40 41 46 51 67 79 89 99 110 116 121 128 136 146 151 155 159 164 166 167 166 165 165 165 161 163 159 157 153